Regional Weather Roundup
Issued by NWS

Home | Current Version | Previous Version | Text Only | Print | Product List | Glossary Off
Versions: 1 2 3 4 5 6 7 8 9 10 11 12 13 14 15 16 17 18 19 20 21 22 23 24 25 26 27 28 29 30 31 32 33 34 35 36 37 38 39 40 41 42 43 44 45 46 47 48 49 50

000
ASUS45 KABQ 280810
RWRNM
NEW MEXICO REGIONAL WEATHER ROUNDUP
NATIONAL WEATHER SERVICE ALBUQUERQUE NM
200 AM MDT SUN AUG 28 2016

NOTE: "FAIR" MEANS FEW OR NO CLOUDS BELOW 12,000 FEET AGL WITH NO
       SIGNIFICANT WEATHER OR OBSTRUCTIONS TO VISION.

      THIS PRODUCT IS RELEASED AS TWO VERSIONS.  ONE VERSION NEAR
      THE TOP OF THE HOUR CONTAINING PRELIMINARY DATA FROM ALBUQUERQUE
      AND OTHER STATIONS.  A FINAL VERSION WITH ADDITIONAL DATA IS
      ISSUED ABOUT 10 MINUTES AFTER THE HOUR.

NMZ501-503-504-510>518-280900-
NORTHWEST PLATEAU/NORTHCENTRAL MOUNTAINS

CITY           SKY/WX    TMP DP  RH WIND       PRES   REMARKS
FARMINGTON     FAIR      54  50  86 E8        30.23R
SANTA FE       FAIR      52  49  89 N6        30.25F
TAOS           FAIR      48  39  71 CALM      30.32S
ANGEL FIRE     FAIR      39  37  91 CALM      30.39R

$$
NMZ402-403-502-505>509-280900-
WESTCENTRAL MOUNTAINS/SOUTHWEST MOUNTAINS

CITY           SKY/WX    TMP DP  RH WIND       PRES   REMARKS
GALLUP         FAIR      49  46  90 E3        30.27F
GRANTS         MOCLDY    49  46  88 NW16      30.30S
SILVER CITY    FAIR      56  54  92 N7        30.19F

$$
NMZ407-409-411-412-280900-
SOUTHERN DESERTS

CITY           SKY/WX    TMP DP  RH WIND       PRES   REMARKS
DEMING         FAIR      64  56  75 SE5       30.12F
LAS CRUCES     CLOUDY    65  60  83 SE7       30.15R
HOLLOMAN AFB   FAIR      63  60  88 N2        30.11R
ALAMOGORDO     MOCLDY    64  57  77 W10       30.13R
T OR C         FAIR      64  51  62 NW6       30.15F

$$
NMZ519>523-280900-
CENTRAL VALLEYS/CENTRAL HIGHLANDS

CITY           SKY/WX    TMP DP  RH WIND       PRES   REMARKS
ALBUQUERQUE    FAIR      62  53  72 N3        30.21F
MORIARTY ARPT  FAIR      51  47  86 CALM      30.26S
CLINES CORNERS FAIR      53  47  79 NW5       30.30R
BELEN          FAIR      56  52  86 CALM      30.22R
SOCORRO        FAIR      60  49  67 N5        30.18F

$$
NMZ524>526-539-540-280900-
SOUTHCENTRAL MOUNTAINS

CITY           SKY/WX    TMP DP  RH WIND       PRES   REMARKS
RUIDOSO          N/A     55  46  71 W7        30.30S

$$
NMZ527>531-280900-
NORTHEAST HIGHLANDS/NORTHEAST PLAINS

CITY           SKY/WX    TMP DP  RH WIND       PRES   REMARKS
LAS VEGAS      FAIR      53  44  71 E7        30.27S
RATON          CLOUDY    58  49  72 N3        30.23S
CLAYTON        FAIR      60  60 100 SE12      30.17F

$$
NMZ532>537-280900-
EASTCENTRAL PLAINS

CITY           SKY/WX    TMP DP  RH WIND       PRES   REMARKS
TUCUMCARI      FAIR      66  57  72 S9        30.12F
CANNON AFB     FAIR      63  61  95 S12       30.15F
CLOVIS AIRPORT FAIR      61  55  82 SE9       30.16F

$$
NMZ028-029-538-280900-
SOUTHEAST PLAINS

CITY           SKY/WX    TMP DP  RH WIND       PRES   REMARKS
ROSWELL        FAIR      68  62  81 E6        30.12R
ARTESIA        CLOUDY    66  64  94 E9G16     30.09F
CARLSBAD       MOCLDY    71  66  84 NW3       30.08R
HOBBS          FAIR      66  66 100 E6        30.13S


$$




USA.gov is the U.S. government's official web portal to all federal, state and local government web resources and services.